Regional Weather Roundup
Issued by NWS

Home | Current Version | Previous Version | Text Only | Print | Product List | Glossary Off
Versions: 1 2 3 4 5 6 7 8 9 10 11 12 13 14 15 16 17 18 19 20 21 22 23 24 25 26 27 28 29 30 31 32 33 34 35 36 37 38 39 40 41 42 43 44 45 46 47 48 49 50

000
ASUS43 KIND 190709
RWRIN

WEATHER ROUNDUP FOR INDIANA
NATIONAL WEATHER SERVICE INDIANAPOLIS IN
200 AM EST SUN FEB 19 2017

NOTE: "FAIR" INDICATES FEW OR NO CLOUDS BELOW 12,000 FEET WITH NO
SIGNIFICANT WEATHER AND/OR OBSTRUCTIONS TO VISIBILITY.

* - STATION DOES NOT REPORT WEATHER SUCH AS PRECIPITATION OR FOG.

+ - STATION NOT QUALITY CONTROLLED BY THE NATIONAL WEATHER SERVICE.
    USE DATA WITH CAUTION...ESPECIALLY DEWPOINT AND RELATIVE
    HUMIDITY OBSERVATIONS.

INZ001>003-010>013-019-020-190800-
NORTHWEST INDIANA

CITY           SKY/WX    TMP DP  RH WIND       PRES   REMARKS
GARY /AIRPORT/ CLEAR     35  32  90 CALM      29.87R
KNOX *+        CLEAR     36  28  75 SW3       29.86S
LA PORTE +     CLEAR     35  32  91 CALM      29.87S
MICHIGAN CITY+ CLEAR     34  32  93 CALM      29.87S
MONTICELLO +   CLEAR     44  42  93 SW6       29.87S
RENSSELAER +   CLEAR     43  41  93 SW7       29.88R
VALPARAISO     CLEAR     40  39  97 CALM      29.86S

$$

LMZ046-743>745-190800-
SOUTHERN LAKE MICHIGAN

STATION/POSITION TIME  TEMP    WIND        PRES    WAVE
                       AIR SEA DIR/SP/G            HT
                 (UTC) (F)     (DEG/KT/KT) (MB)    (FT)
BURNS HARBOR     0640   40     290/  2/  2 1011.9R
MICHIGAN CITY    0640   40     200/  4/  4   N/A

$$

INZ004-005-014>016-021>024-190800-
NORTH CENTRAL INDIANA

CITY           SKY/WX    TMP DP  RH WIND       PRES   REMARKS
GOSHEN         CLEAR     36  32  85 CALM      29.86R
LOGANSPORT +   CLEAR     41  41 100 SW6       29.89R FOG
PERU/GRISSOM   CLEAR     46  46 100 W9        29.87R
ROCHESTER +    CLEAR     46  43  87 W6        29.87S
SOUTH BEND     CLEAR     34  29  82 CALM      29.86R
WARSAW +       CLEAR     45  39  81 W7        29.87R

$$

INZ006>009-017-018-025>027-190800-
NORTHEAST INDIANA

CITY           SKY/WX    TMP DP  RH WIND       PRES   REMARKS
ANGOLA *+      CLEAR     36  36 100 CALM      29.84S
AUBURN +       CLEAR     46  39  76 SW6       29.86R
FORT WAYNE     CLEAR     43  39  86 SW8       29.87R
HUNTINGTON +   CLEAR     45  43  93 SW6       29.88R
KENDALLVILLE + CLEAR     45  39  79 W7        29.85R

$$

INZ028-029-035-036-043>045-051>053-190800-
WEST CENTRAL INDIANA

CITY           SKY/WX    TMP DP  RH WIND       PRES   REMARKS
GREENCASTLE +  CLOUDY    46  45  93 W8        29.93R
LAFAYETTE      CLOUDY    47  47 100 SW9       29.89S
TERRE HAUTE    CLOUDY    50  47  89 SW7       29.93S

$$

INZ030>032-037>040-046>048-054>057-064-065-190800-
CENTRAL INDIANA

CITY           SKY/WX    TMP DP  RH WIND       PRES   REMARKS
CP ATTERBURY + CLEAR     46  43  87 SW5       29.93S
FRANKFORT +    CLOUDY    50  48  93 W13       29.91S
GREENWOOD *+   CLEAR     47  46  93 SW6       29.92S
INDIANAPOLIS   MOCLDY    48  45  89 SW15      29.91S
-EAGLE CREEK   MOCLDY    48  44  86 SW7       29.91R
KOKOMO +       CLEAR     44  43  96 SW9       29.89R
MARION +       CLEAR     46  44  93 W9        29.89S
MT COMFORT *+  CLEAR     45  43  93 SW7       29.91R
SHELBYVILLE    CLEAR     44  41  89 S8        29.92R
ZIONSVILLE +   MOCLDY    46  45  93 SW13G18   29.91R

$$

INZ033-034-041-042-049-050-058-059-190800-
EAST CENTRAL INDIANA

CITY           SKY/WX    TMP DP  RH WIND       PRES   REMARKS
MUNCIE         PTCLDY    50  46  86 SW10      29.89R

$$

INZ060-061-067>069-081>083-085>088-190800-
SOUTHWEST INDIANA

CITY           SKY/WX    TMP DP  RH WIND       PRES   REMARKS
EVANSVILLE     FOG       47  44  90 CALM      29.95F VSB 1/4
HUNTINGBURG *+ CLOUDY    50  48  93 S7        29.95F
WASHINGTON +   CLOUDY    47  46  94 SW3       29.95R FOG

$$

INZ062-063-066-070>080-084-089>092-190800-
SOUTH CENTRAL AND SOUTHEAST INDIANA

CITY           SKY/WX    TMP DP  RH WIND       PRES   REMARKS
BEDFORD +      CLOUDY    46  45  93 CALM      29.94  FOG
BLOOMINGTON    PTCLDY    48  44  86 W8        29.93S
MADISON *+     MOCLDY    46  45  93 SW3       29.97R
NORTH VERNON + CLEAR    N/A N/A N/A SW5       29.94S
SEYMOUR +      PTCLDY    45  43  93 SW3       29.95R FOG

$$





USA.gov is the U.S. government's official web portal to all federal, state and local government web resources and services.